Flag for Canada Weather past 2 weeks in Igloolik, Nunavut, Canada

-27 °F


Feels Like: -55 °F
Forecast: -19 / -15 °F
Wind: 15 mph from Northwest

Location: Hall Beach

Current Time: Nov 26, 2015 at 4:22:13 AM

Latest Report: Nov 26, 2015 at 4:00 AM

Visibility: 9 mi

Pressure: 29.93 "Hg

Humidity: 67%

Dew point: -35 °F

Location of IgloolikLocation

Historic Weather in Igloolik — Graph


Igloolik temperature yesterday

Maximum temperature yesterday: -17 °F (at 9:00 AM)
Minimum temperature yesterday: -27 °F (at 10:01 PM)
Average temperature yesterday: -22 °F

Past Weeks' High & Low Weather Summary

High28 °F (Nov 12, 5:00 PM)100% (Nov 12, 12:00 AM)30.28 "Hg (Nov 12, 12:00 AM)
Low-27 °F (Nov 25, 10:01 PM)67% (Nov 25, 9:00 PM)28.97 "Hg (Nov 18, 6:00 PM)
Average4 °F86%29.78 "Hg
* Reported Nov 11 7:00 AM — Nov 26 3:00 AM, Igloolik, Weather by CustomWeather, © 2015

Note: Actual official high and low records may vary slightly from our data, if they occured in-between our weather recording intervals... More about our weather records


Igloolik weather history for previous 24 hours

Time TempWeatherWind HumidityBarometerVisibility
3:00 AM
Thu, Nov 26
-26 °FClear.13 mph67%29.93 "Hg9 mi
2:00 AM-26 °FPassing clouds.15 mph75%29.93 "Hg9 mi
1:00 AM-24 °FLight snow. Clear.13 mph68%29.93 "Hg4 mi
12:00 AM-22 °FLight snow. Mostly cloudy.9 mph68%29.93 "Hg7 mi
11:00 PM
Wed, Nov 25
-26 °FLight snow. Mostly cloudy.10 mph75%29.92 "Hg9 mi
10:56 PM-26 °FLight snow. Overcast.10 mph67%29.92 "Hg9 mi
10:01 PM-27 °FOvercast.12 mph74%29.92 "Hg9 mi
9:00 PM-26 °FClear.15 mph67%29.92 "Hg9 mi
8:00 PM-24 °FPassing clouds.13 mph75%29.91 "Hg9 mi
7:00 PM-24 °FSnow flurries. Partly cloudy.12 mph68%29.91 "Hg15 mi
6:00 PM-26 °FSnow flurries. Passing clouds.15 mph75%29.91 "Hg15 mi
5:00 PM-24 °FSnow flurries. Passing clouds.15 mph75%29.91 "Hg12 mi
4:00 PM-20 °FSnow flurries. Passing clouds.16 mph68%29.90 "Hg9 mi
3:00 PM-20 °FSnow flurries. Passing clouds.8 mph75%29.90 "Hg12 mi
2:00 PM-22 °FPartly cloudy.12 mph75%29.89 "Hg12 mi
1:00 PM-24 °FScattered clouds.12 mph75%29.89 "Hg15 mi
12:00 PM-22 °FScattered clouds.6 mph75%29.88 "Hg15 mi
11:00 AM-20 °FPassing clouds.13 mph75%29.88 "Hg8 mi
10:00 AM-17 °FLight snow. Passing clouds.9 mph76%29.88 "Hg7 mi
9:00 AM-17 °FLight snow. Ice fog.10 mph76%29.88 "Hg3 mi
8:00 AM-18 °FPartly cloudy.12 mph75%29.88 "Hg15 mi
7:00 AM-20 °FLight snow. Partly cloudy.5 mph75%29.89 "Hg8 mi
6:00 AM-22 °FPassing clouds.10 mph75%29.88 "Hg9 mi
5:48 AM-22 °FPassing clouds.12 mph75%29.88 "Hg9 mi
5:00 AM-20 °FPassing clouds.14 mph75%29.89 "Hg9 mi
4:00 AM-18 °FLight snow. Overcast.12 mph75%29.89 "Hg3 mi
Weather by CustomWeather, © 2015

See weather overviewHow to use our weather pages